Location: Newark
(42.0667°N, 9.0833°E)
Time: 05:44:07
(UTC+00:00)

Hubble Space Telescope - Visible Passes

Search period start: 09 December 2019 00:00
Search period end: 19 December 2019 00:00
Orbit: 536 x 540 km, 28.5° (Epoch: 08 December)

Date Brightness Start Highest point End Pass type
(mag) Time Alt. Az. Time Alt. Az. Time Alt. Az.
16 Dec 3.7 04:57:18 10° S 04:57:34 10° S 04:57:50 10° SSE visible
17 Dec 3.5 04:45:40 10° S 04:46:49 11° S 04:47:58 10° SSE visible
18 Dec 3.4 04:34:57 11° S 04:36:04 12° S 04:37:33 10° SSE visible
